Ibiza, Spain

12:38 AM CET on December 09, 2016 (GMT +0100)
Ibiza

Weather History for LEIB - November, 2012

Change the Weather History Date:

Sunday, November 11, 2012

  Actual Average Record
Temperature  
Mean Temperature 61 °F -  
Max Temperature 68 °F 62 °F 75 °F (2002)
Min Temperature 54 °F 51 °F 47 °F (2016)
Degree Days  
Heating Degree Days 4    
Growing Degree Days 11 (Base 50)    
Moisture  
Dew Point 52 °F    
Average Humidity 71    
Maximum Humidity 100    
Minimum Humidity 43    
Precipitation  
Precipitation 0.31 in 0.07 in - ()
Sea Level Pressure  
Sea Level Pressure 29.75 in    
Wind  
Wind Speed 7 mph ()    
Max Wind Speed 16 mph    
Max Gust Speed -    
Visibility 6.2 miles    
Events Rain , Thunderstorm    
Averages and records for this station are not official NWS values.
T = Trace of Precipitation, MM = Missing Value Source: Averaged Metar Reports

Daily Weather History Graph

Daily Weather History Graph

Search for Another Location

Airport or City:

Trip Planner

Search our weather history database for the weather conditions in past years. The results will help you decide how hot, cold, wet, or windy it might be!

Date:

Astronomy

Nov. 11, 2012 Rise Set
Actual Time 7:32 AM CET 5:43 PM CET
Civil Twilight 7:04 AM CET 6:11 PM CET
Nautical Twilight 6:32 AM CET 6:43 PM CET
Astronomical Twilight 6:01 AM CET 7:15 PM CET
Moon 4:30 AM CET (11/11) 3:56 PM CET (11/11)
Length of Visible Light 11h 07m
Length of Day
10h 10m
Waning Crescent, 9% of the Moon is Illuminated
Nov 11
Waning Crescent
Nov 13
New
Nov 20
First Quarter
Nov 28
Full
Dec 6
Last Quarter

Hourly Weather History & Observations

Time (CET) Temp. Dew Point Humidity Pressure Visibility Wind Dir Wind Speed Gust Speed Precip Events Conditions
12:00 AM 62.6 °F 48.2 °F 59% 29.77 in - WSW 12.7 mph - N/A   Clear
1:00 AM 62 °F 48 °F 50% 29.77 in 9 mi WSW 13.8 mph - -  
1:00 AM 62.6 °F 50.0 °F 63% 29.77 in - WSW 12.7 mph - N/A   Clear
4:00 AM 60.8 °F 46.4 °F 59% 29.71 in - WSW 9.2 mph - N/A   Clear
5:30 AM 57.2 °F 48.2 °F 72% 29.71 in - West 3.5 mph - N/A   Clear
6:00 AM 55.4 °F 48.2 °F 77% 29.71 in - Variable 2.3 mph - N/A   Clear
6:30 AM 55.4 °F 48.2 °F 77% 29.71 in - West 3.5 mph - N/A   Clear
7:00 AM 57 °F 47 °F 61% 29.71 in 9 mi WSW 5.8 mph - -   Clear
7:00 AM 59.0 °F 48.2 °F 67% 29.71 in - WSW 5.8 mph - N/A   Clear
8:00 AM 59.0 °F 50.0 °F 72% 29.71 in 6.2 mi WSW 5.8 mph - N/A   Partly Cloudy
8:30 AM 59.0 °F 50.0 °F 72% 29.71 in 6.2 mi WNW 3.5 mph - N/A   Partly Cloudy
9:00 AM 59.0 °F 50.0 °F 72% 29.71 in 6.2 mi Variable 2.3 mph - N/A   Partly Cloudy
9:30 AM 60.8 °F 51.8 °F 72% 29.74 in 6.2 mi Variable 2.3 mph - N/A   Partly Cloudy
10:00 AM 64.4 °F 50.0 °F 59% 29.71 in 6.2 mi Variable 1.2 mph - N/A   Partly Cloudy
10:30 AM 66.2 °F 50.0 °F 56% 29.71 in 6.2 mi Variable 2.3 mph - N/A   Partly Cloudy
11:00 AM 66.2 °F 48.2 °F 52% 29.74 in 6.2 mi East 5.8 mph - N/A   Partly Cloudy
11:30 AM 66.2 °F 50.0 °F 56% 29.74 in 6.2 mi ENE 6.9 mph - N/A   Scattered Clouds
12:00 PM 66.2 °F 48.2 °F 52% 29.74 in 6.2 mi East 5.8 mph - N/A   Scattered Clouds
12:30 PM 64.4 °F 48.2 °F 56% 29.71 in 6.2 mi East 8.1 mph - N/A   Scattered Clouds
1:00 PM 66 °F 49 °F 43% 29.71 in 12 mi ENE 8.1 mph - -   Scattered Clouds
1:00 PM 64.4 °F 48.2 °F 56% 29.71 in 6.2 mi East 6.9 mph - N/A   Scattered Clouds
1:30 PM 64.4 °F 48.2 °F 56% 29.71 in 6.2 mi ENE 8.1 mph - N/A   Scattered Clouds
2:00 PM 64.4 °F 50.0 °F 59% 29.71 in 6.2 mi ENE 8.1 mph - N/A   Scattered Clouds
2:30 PM 64.4 °F 50.0 °F 59% 29.71 in 6.2 mi ENE 9.2 mph - N/A   Scattered Clouds
3:00 PM 64.4 °F 50.0 °F 59% 29.71 in 6.2 mi ENE 6.9 mph - N/A   Mostly Cloudy
3:30 PM 62.6 °F 51.8 °F 68% 29.71 in 6.2 mi East 4.6 mph - N/A Rain , Thunderstorm Rain
4:00 PM 57.2 °F 53.6 °F 88% 29.74 in 2.5 mi East 6.9 mph - N/A Rain , Thunderstorm Rain Showers
4:14 PM 57.2 °F 55.4 °F 94% 29.74 in 2.5 mi East 6.9 mph - N/A Rain , Thunderstorm Rain Showers
4:30 PM 55.4 °F 55.4 °F 100% 29.74 in 2.8 mi SSE 10.4 mph - N/A Rain , Thunderstorm Light Rain Showers
4:47 PM 57.2 °F 55.4 °F 94% 29.74 in 5.6 mi Calm Calm - N/A Rain , Thunderstorm Light Thunderstorms and Rain
5:00 PM 57.2 °F 55.4 °F 94% 29.74 in 6.2 mi Variable 2.3 mph - N/A Rain Light Rain
5:30 PM 59.0 °F 53.6 °F 82% 29.74 in 6.2 mi NE 10.4 mph - N/A   Scattered Clouds
6:00 PM 57.2 °F 55.4 °F 94% 29.74 in 6.2 mi North 8.1 mph - N/A   Scattered Clouds
6:30 PM 57.2 °F 53.6 °F 88% 29.74 in 6.2 mi North 6.9 mph - N/A   Light Drizzle
7:00 PM 57 °F 53 °F 81% 29.77 in 6 mi NNE 9.2 mph - - Rain Light Drizzle
7:00 PM 57.2 °F 53.6 °F 88% 29.77 in - NNE 9.2 mph - N/A   Clear
7:30 PM 60.8 °F 55.4 °F 82% 29.80 in - ENE 6.9 mph - N/A   Clear
8:30 PM 62.6 °F 55.4 °F 77% 29.80 in - East 12.7 mph - N/A   Clear
9:00 PM 64.4 °F 57.2 °F 77% 29.83 in 6.2 mi East 13.8 mph - N/A   Scattered Clouds
9:30 PM 64.4 °F 57.2 °F 77% 29.83 in 6.2 mi East 12.7 mph - N/A   Mostly Cloudy
10:00 PM 64.4 °F 55.4 °F 73% 29.83 in 6.2 mi East 13.8 mph - N/A   Scattered Clouds
10:30 PM 59.0 °F 55.4 °F 88% 29.86 in 5.0 mi SE 16.1 mph - N/A Rain Light Rain Showers
11:00 PM 62.6 °F 55.4 °F 77% 29.86 in 6.2 mi East 10.4 mph - N/A   Scattered Clouds
11:30 PM 64.4 °F 59.0 °F 83% 29.86 in 6.2 mi East 13.8 mph - N/A   Scattered Clouds